Location: Borkenes
(68.7830°N, 16.1830°E)
Time: 12:00:33
(UTC+02:00)

Envisat - Visible Passes

Search period start: 23 October 2019 00:00
Search period end: 01 November 2019 23:00
Orbit: 764 x 766 km, 98.1° (Epoch: 23 October)

Date Brightness Start Highest point End Pass type
(mag) Time Alt. Az. Time Alt. Az. Time Alt. Az.
23 Oct 6.0 06:17:59 10° NE 06:21:28 18° ENE 06:24:55 10° ESE visible
23 Oct 3.0 17:46:32 10° SSE 17:51:38 79° ENE 17:56:46 10° NNW visible
23 Oct 4.6 19:26:24 10° SSW 19:31:08 38° W 19:35:54 10° NNW visible
23 Oct 6.1 21:09:09 10° W 21:11:40 14° WNW 21:14:11 10° NW visible
24 Oct 6.3 05:41:57 10° NE 05:43:58 12° ENE 05:46:00 10° E visible
24 Oct 5.0 07:19:56 10° NNE 07:24:37 34° E 07:29:15 10° SSE visible
24 Oct 3.8 18:49:04 10° S 18:54:05 56° WSW 18:59:08 10° NNW visible
24 Oct 5.7 20:30:30 10° SW 20:34:13 20° W 20:37:57 10° NNW visible
25 Oct 5.7 06:43:17 10° NNE 06:47:23 23° E 06:51:27 10° SE visible
25 Oct 3.2 18:12:03 10° SSE 18:17:10 82° WSW 18:22:18 10° NNW visible
25 Oct 5.1 19:52:30 10° SSW 19:56:55 29° W 20:01:22 10° NNW visible
25 Oct 6.4 21:37:22 10° WNW 21:37:44 10° WNW 21:38:07 10° WNW visible
26 Oct 6.1 06:06:51 10° NE 06:10:00 16° ENE 06:13:08 10° ESE visible
26 Oct 3.0 17:35:18 10° SE 17:40:22 71° ENE 17:45:28 10° NNW visible
26 Oct 4.3 19:14:56 10° S 19:19:46 42° W 19:24:38 10° NNW visible
26 Oct 6.0 20:57:14 10° WSW 21:00:11 15° WNW 21:03:08 10° NW visible
27 Oct 6.5 04:31:15 10° NE 04:32:28 11° ENE 04:33:40 10° E visible
27 Oct 5.2 06:08:42 10° NNE 06:13:13 31° E 06:17:43 10° SSE visible
27 Oct 3.6 17:37:42 10° S 17:42:46 63° WSW 17:47:51 10° NNW visible
27 Oct 5.5 19:18:49 10° SW 19:22:46 22° W 19:26:45 10° NNW visible
28 Oct 5.8 05:32:06 10° NNE 05:35:57 21° E 05:39:47 10° SE visible
28 Oct 3.0 17:00:46 10° SSE 17:05:53 90° ESE 17:11:01 10° NNW visible
28 Oct 4.9 18:40:58 10° SSW 18:45:32 32° W 18:50:07 10° NNW visible
28 Oct 6.2 20:24:33 10° W 20:26:13 11° WNW 20:27:54 10° NW visible
29 Oct 6.1 04:55:46 10° NE 04:58:31 14° ENE 05:01:16 10° ESE visible
29 Oct 4.6 06:34:11 10° NNE 06:38:59 40° E 06:43:47 10° SSE visible
29 Oct 3.0 16:24:05 10° SE 16:29:07 64° ENE 16:34:10 10° NNW visible
29 Oct 4.1 18:03:30 10° S 18:08:25 48° W 18:13:23 10° NNW visible
29 Oct 5.9 19:45:24 10° WSW 19:48:43 17° WNW 19:52:02 10° NW visible
30 Oct 5.4 05:57:28 10° NNE 06:01:49 27° E 06:06:09 10° SE visible
30 Oct 3.4 17:26:21 10° SSE 17:31:27 70° WSW 17:36:34 10° NNW visible
30 Oct 5.3 19:07:11 10° SW 19:11:21 25° W 19:15:32 10° NNW visible
31 Oct 5.9 05:20:54 10° NNE 05:24:29 19° ENE 05:28:05 10° ESE visible
31 Oct 3.0 16:49:30 10° SSE 16:54:36 82° ENE 16:59:44 10° NNW visible
31 Oct 4.6 18:29:27 10° SSW 18:34:08 36° W 18:38:52 10° NNW visible
31 Oct 6.1 20:12:24 10° W 20:14:43 13° WNW 20:17:02 10° NW visible
01 Nov 6.2 04:44:46 10° NE 04:47:02 13° ENE 04:49:17 10° E visible
01 Nov 4.8 06:22:54 10° NNE 06:27:37 36° E 06:32:18 10° SSE visible
01 Nov 3.1 16:12:53 10° SE 16:17:53 58° NE 16:22:54 10° NNW visible
01 Nov 3.8 17:52:05 10° S 17:57:05 53° WSW 18:02:06 10° NNW visible
01 Nov 5.7 19:33:39 10° SW 19:37:15 19° W 19:40:53 10° NNW visible
